ECHOSTAR 1

Last updated on Tue Jan 09 2018 00:19:02 GMT+0000 (Coordinated Universal Time)

1 23754U 95073A 18008.44719448 -.00000020 00000-0 00000+0 0 9995 2 23754 1.2221 89.1269 0005417 193.5406 254.5080 0.98925579 80546
UTC large
Height (km)
Speed (km/s)
/
Latitude / Longitude
Inclination (degrees)
Orbital Period (minutes)
Azimuth
Elevation
Range (km)
Doppler Factor

Next 0 passes for location: London (51.5072 / 0.1276)

Sorry there are no passes over London.